Faa'a International Airport

Jump to: basic info | weather | frequencies | runways | comments

Related pages: nearby airports | nearby navaids | notams | map

Basic information (top)

Codes: PPT NTAA
Location: lon -17.553699, lat -149.606995, elev 5 ft / 2 m msl
Status: medium_airport
Scheduled airline service: yes
Links: Wikipedia Mobile

Weather (top)

Current conditions (rec'd 2014/10/24 15:30Z):

NTAA 241530Z AUTO 03006KT 9999 FEW031/// BKN054/// OVC066/// 24/22 Q1012

Airport forecast (rec'd 2014/10/24 12:18Z):

TAF TAF NTAA 241100Z 2412/2518 VRB06KT 9999 SCT016 BKN050 PROB30 
      TEMPO 2412/2418 3000 SHRA BKN016 OVC045 
      BECMG 2418/2420 FEW020 SCT050

Frequencies (top)

Verify before use: may be inaccurate or out of date.

APP: 118.1 MHz (APP)
ATIS: 128.8 MHz (ATIS)
GND: 121.9 MHz (GND)
TWR: 118.1 MHz (TWR)

Runways (top)

04/22: 11,360 x 148 ft (3,463 x 45 m) — paved — lighted — threshold 04 displaced 1,120 ft (341 m) — threshold 22 displaced 390 ft (119 m)

Latest comments (top)

Fa'a'a international Airport: a great hot country [read]

More... (top)

See also NOTAMs and nearby airports and navaids, or visit the Faa'a International Airport page at the main OurAirports website..